User: anonymous   Login
Location: *
(33.8649°S, 62.1526°E)
Time: 21:30:51
(UTC+00:00)
Language:

COSMOS 2406 - Orbit

View from above orbital plane
View from above orbital plane
View from above satellite
View from above satellite

Ground track
Ground track

The orbit data is extracted from the following two-line orbital elements,

1 28352U 04021A   21112.18488147 -.00000052  00000-0 -27764-5 0  9995
2 28352  71.0005  70.8383 0013569 142.2389 217.9687 14.11678695869121
Epoch (UTC): 22 April 2021 04:26:13
Eccentricity: 0.0013569
inclination: 71.0005°
perigee height: 844 km
apogee height: 863 km
right ascension of ascending node: 70.8383°
argument of perigee: 142.2389°
revolutions per day: 14.11678695
mean anomaly at epoch: 217.9687°
orbit number at epoch: 86912

The dashed part of the orbit path shows where the satellite is in the earth's shadow,  

DLR